When you browse on this site, cookies collect data to enhance your experience and personalize the content and advertising you see.
Visit our Privacy Policy to learn more. By continuing to use the site, you agree to this use of cookies and data.
EN

Hourly Weather Solwezi

Today, 11 August, Tuesday

Time Temperature Precipitation Wind Pressure Humidity
00:00 +28°C° 0 mm 5 mps 713 mmHg 69%
01:00 +27°C° 0 mm 5 mps 713 mmHg 72%
02:00 +27°C° 0 mm 4 mps 713 mmHg 76%
03:00 +27°C° 0.1 mm 4 mps 713 mmHg 77%
04:00 +27°C° 0.1 mm 4 mps 713 mmHg 77%
05:00 +27°C° 0.1 mm 5 mps 713 mmHg 78%
06:00 +27°C° 1 mm 5 mps 713 mmHg 75%
07:00 +28°C° 1 mm 5 mps 714 mmHg 72%
08:00 +29°C° 0 mm 5 mps 714 mmHg 68%
09:00 +30°C° 0 mm 6 mps 714 mmHg 63%
10:00 +32°C° 0 mm 6 mps 714 mmHg 58%
11:00 +33°C° 0 mm 6 mps 714 mmHg 54%
12:00 +34°C° 0 mm 6 mps 714 mmHg 51%
13:00 +35°C° 0 mm 6 mps 713 mmHg 48%
14:00 +35°C° 0 mm 6 mps 713 mmHg 46%
15:00 +35°C° 0 mm 6 mps 712 mmHg 45%
16:00 +35°C° 0 mm 5 mps 712 mmHg 44%
17:00 +35°C° 0 mm 4 mps 711 mmHg 44%
18:00 +35°C° 0 mm 4 mps 712 mmHg 47%
19:00 +34°C° 0 mm 4 mps 712 mmHg 49%
20:00 +33°C° 0 mm 4 mps 712 mmHg 52%
21:00 +32°C° 0.2 mm 4 mps 712 mmHg 56%
22:00 +30°C° 0.2 mm 4 mps 713 mmHg 59%
23:00 +30°C° 0.2 mm 4 mps 713 mmHg 63%

Tomorrow, 12 August, Wednesday

Time Temperature Precipitation Wind Pressure Humidity
00:00 +29°C° 0 mm 4 mps 713 mmHg 66%
01:00 +29°C° 0 mm 4 mps 712 mmHg 68%
02:00 +28°C° 0 mm 4 mps 712 mmHg 71%
03:00 +28°C° 0.2 mm 4 mps 712 mmHg 71%
04:00 +28°C° 0.2 mm 4 mps 712 mmHg 72%
05:00 +27°C° 0.2 mm 5 mps 712 mmHg 73%
06:00 +28°C° 0.3 mm 5 mps 712 mmHg 71%
07:00 +28°C° 0.3 mm 5 mps 713 mmHg 70%
08:00 +28°C° 0.3 mm 6 mps 713 mmHg 68%
09:00 +29°C° 0 mm 5 mps 713 mmHg 63%
10:00 +32°C° 0 mm 5 mps 714 mmHg 58%
11:00 +33°C° 0 mm 5 mps 714 mmHg 53%
12:00 +34°C° 0 mm 4 mps 713 mmHg 51%
13:00 +34°C° 0 mm 4 mps 712 mmHg 49%
14:00 +35°C° 0 mm 3 mps 712 mmHg 47%
15:00 +35°C° 0.1 mm 3 mps 711 mmHg 48%
16:00 +34°C° 0.1 mm 3 mps 711 mmHg 49%
17:00 +34°C° 0.1 mm 2 mps 710 mmHg 50%
18:00 +33°C° 0 mm 3 mps 711 mmHg 52%
19:00 +33°C° 0 mm 3 mps 711 mmHg 55%
20:00 +31°C° 0 mm 3 mps 712 mmHg 57%
21:00 +30°C° 0.3 mm 3 mps 712 mmHg 59%
22:00 +30°C° 0.3 mm 3 mps 712 mmHg 62%
23:00 +29°C° 0.3 mm 3 mps 712 mmHg 64%

Day after tomorrow, 13 August, Thursday

Time Temperature Precipitation Wind Pressure Humidity
00:00 +29°C° 0.5 mm 3 mps 712 mmHg 67%
01:00 +28°C° 0.5 mm 3 mps 712 mmHg 69%
02:00 +28°C° 0.5 mm 3 mps 712 mmHg 72%
03:00 +27°C° 0.9 mm 3 mps 712 mmHg 74%
04:00 +27°C° 0.9 mm 2 mps 712 mmHg 75%
05:00 +27°C° 0.9 mm 2 mps 712 mmHg 77%
06:00 +27°C° 0.7 mm 3 mps 712 mmHg 75%
07:00 +28°C° 0.7 mm 4 mps 713 mmHg 73%
08:00 +28°C° 0.7 mm 5 mps 714 mmHg 71%
09:00 +29°C° 0 mm 5 mps 714 mmHg 67%
10:00 +30°C° 0 mm 5 mps 714 mmHg 63%
11:00 +32°C° 0 mm 4 mps 714 mmHg 60%
12:00 +32°C° 0 mm 4 mps 713 mmHg 56%
13:00 +33°C° 0 mm 3 mps 713 mmHg 53%
14:00 +34°C° 0 mm 3 mps 712 mmHg 49%
15:00 +34°C° 0 mm 3 mps 712 mmHg 49%
16:00 +34°C° 0 mm 3 mps 711 mmHg 48%
17:00 +34°C° 0 mm 3 mps 711 mmHg 47%
18:00 +33°C° 0 mm 3 mps 711 mmHg 50%
19:00 +33°C° 0 mm 3 mps 711 mmHg 53%
20:00 +31°C° 0 mm 3 mps 712 mmHg 55%
21:00 +30°C° 0 mm 3 mps 712 mmHg 57%
22:00 +30°C° 0 mm 3 mps 712 mmHg 60%
23:00 +29°C° 0 mm 3 mps 712 mmHg 62%

14 August, Friday

Time Temperature Precipitation Wind Pressure Humidity
00:00 +29°C° 0 mm 3 mps 712 mmHg 64%
01:00 +28°C° 0 mm 3 mps 712 mmHg 66%
02:00 +28°C° 0 mm 3 mps 712 mmHg 69%
03:00 +28°C° 0 mm 2 mps 711 mmHg 71%
04:00 +27°C° 0 mm 2 mps 711 mmHg 73%
05:00 +27°C° 0 mm 2 mps 711 mmHg 75%
06:00 +28°C° 0 mm 2 mps 712 mmHg 73%
07:00 +28°C° 0 mm 3 mps 712 mmHg 70%
08:00 +29°C° 0 mm 3 mps 713 mmHg 68%
09:00 +30°C° 0 mm 3 mps 713 mmHg 62%
10:00 +33°C° 0 mm 4 mps 713 mmHg 56%
11:00 +34°C° 0 mm 4 mps 713 mmHg 49%
12:00 +35°C° 0 mm 3 mps 712 mmHg 46%
13:00 +36°C° 0 mm 3 mps 711 mmHg 43%
14:00 +36°C° 0 mm 3 mps 711 mmHg 40%
15:00 +36°C° 0 mm 3 mps 710 mmHg 41%
16:00 +36°C° 0 mm 3 mps 710 mmHg 41%
17:00 +36°C° 0 mm 3 mps 709 mmHg 42%
18:00 +35°C° 0 mm 3 mps 709 mmHg 45%
19:00 +34°C° 0 mm 4 mps 710 mmHg 48%
20:00 +34°C° 0 mm 4 mps 710 mmHg 50%
21:00 +33°C° 0.9 mm 4 mps 710 mmHg 54%
22:00 +32°C° 0.9 mm 4 mps 711 mmHg 59%
23:00 +30°C° 0.9 mm 4 mps 711 mmHg 63%

15 August, Saturday

Time Temperature Precipitation Wind Pressure Humidity
00:00 +29°C° 0.6 mm 5 mps 711 mmHg 67%
01:00 +28°C° 0.6 mm 5 mps 710 mmHg 72%
02:00 +27°C° 0.6 mm 6 mps 710 mmHg 76%
03:00 +27°C° 0 mm 6 mps 710 mmHg 77%
04:00 +27°C° 0 mm 5 mps 710 mmHg 78%
05:00 +26°C° 0 mm 4 mps 710 mmHg 79%
06:00 +27°C° 0 mm 4 mps 711 mmHg 76%
07:00 +27°C° 0 mm 4 mps 711 mmHg 74%
08:00 +28°C° 0 mm 4 mps 712 mmHg 71%
09:00 +30°C° 0 mm 4 mps 712 mmHg 64%
10:00 +32°C° 0 mm 4 mps 712 mmHg 57%
11:00 +34°C° 0 mm 4 mps 712 mmHg 49%
12:00 +35°C° 0 mm 3 mps 711 mmHg 46%
13:00 +36°C° 0 mm 3 mps 710 mmHg 43%
14:00 +37°C° 0 mm 3 mps 709 mmHg 40%
15:00 +37°C° 0 mm 2 mps 709 mmHg 39%
16:00 +37°C° 0 mm 2 mps 708 mmHg 38%
17:00 +36°C° 0 mm 1 mps 708 mmHg 37%
18:00 +36°C° 0 mm 2 mps 708 mmHg 40%
19:00 +35°C° 0 mm 3 mps 709 mmHg 43%
20:00 +34°C° 0 mm 3 mps 709 mmHg 47%
21:00 +33°C° 0 mm 5 mps 709 mmHg 51%
22:00 +33°C° 0 mm 6 mps 710 mmHg 56%
23:00 +32°C° 0 mm 7 mps 710 mmHg 61%

16 August, Sunday

Time Temperature Precipitation Wind Pressure Humidity
00:00 +30°C° 0.2 mm 6 mps 710 mmHg 63%
01:00 +29°C° 0.2 mm 6 mps 710 mmHg 66%
02:00 +29°C° 0.2 mm 6 mps 709 mmHg 69%
03:00 +28°C° 0.4 mm 5 mps 710 mmHg 70%
04:00 +28°C° 0.4 mm 4 mps 710 mmHg 71%
05:00 +28°C° 0.4 mm 3 mps 710 mmHg 72%
06:00 +27°C° 1.8 mm 4 mps 711 mmHg 77%
07:00 +26°C° 1.8 mm 5 mps 711 mmHg 82%
08:00 +26°C° 1.8 mm 6 mps 711 mmHg 87%
09:00 +26°C° 0.2 mm 5 mps 712 mmHg 84%
10:00 +27°C° 0.2 mm 4 mps 712 mmHg 80%
11:00 +27°C° 0.2 mm 4 mps 712 mmHg 77%
12:00 +28°C° 0 mm 3 mps 711 mmHg 70%
13:00 +29°C° 0 mm 2 mps 711 mmHg 62%
14:00 +30°C° 0 mm 1 mps 710 mmHg 54%
15:00 +30°C° 0 mm 1 mps 710 mmHg 54%
16:00 +30°C° 0 mm 1 mps 710 mmHg 54%
17:00 +30°C° 0 mm 1 mps 709 mmHg 53%
18:00 +29°C° 0 mm 1 mps 710 mmHg 57%
19:00 +29°C° 0 mm 1 mps 710 mmHg 61%
20:00 +28°C° 0 mm 1 mps 710 mmHg 65%
21:00 +28°C° 0 mm 2 mps 711 mmHg 68%
22:00 +28°C° 0 mm 2 mps 711 mmHg 71%
23:00 +27°C° 0 mm 2 mps 711 mmHg 74%
Show more